Location: Newark
(48.0000°N, 67.0000°E)
Time: 21:51:54
(UTC+00:00)

Transit 2A - Visible Passes

Search period start: 28 February 2020 00:00
Search period end: 09 March 2020 00:00
Orbit: 599 x 959 km, 66.7° (Epoch: 28 February)

Date Brightness Start Highest point End Pass type
(mag) Time Alt. Az. Time Alt. Az. Time Alt. Az.
28 Feb 7.2 14:12:26 10° NNW 14:16:34 25° NE 14:19:34 16° E visible
28 Feb 6.1 15:55:05 10° NW 16:00:06 74° WSW 16:00:06 74° WSW visible
28 Feb 8.9 17:40:26 10° W 17:40:38 10° W 17:40:38 10° W visible
29 Feb 5.9 15:20:56 10° NNW 15:26:03 81° NE 15:27:29 51° SE visible
29 Feb 8.3 17:05:12 10° WNW 17:08:01 18° W 17:08:01 18° W visible
01 Mar 6.1 14:46:50 10° NNW 14:51:53 60° NE 14:54:58 26° ESE visible
01 Mar 7.8 16:30:31 10° WNW 16:34:48 26° WSW 16:35:31 25° SW visible
02 Mar 6.4 14:12:47 10° NNW 14:17:39 45° NE 14:22:36 12° ESE visible
02 Mar 7.4 15:56:03 10° NW 16:00:48 36° WSW 16:03:10 25° SSW visible
03 Mar 6.8 15:21:43 10° NW 15:26:45 50° WSW 15:30:59 17° S visible
04 Mar 6.3 14:47:30 10° NW 14:52:40 70° WSW 14:58:21 10° SSE visible
04 Mar 8.8 16:33:11 10° W 16:35:06 12° WSW 16:37:04 10° SW visible
05 Mar 6.1 14:13:20 10° NW 14:18:32 86° NE 14:24:16 10° SE visible
05 Mar 8.6 15:57:46 10° WNW 16:01:12 17° WSW 16:04:49 10° SSW visible
06 Mar 8.2 15:23:00 10° WNW 15:27:15 24° WSW 15:31:48 10° SSW visible
07 Mar 7.8 14:48:31 10° NW 14:53:15 34° WSW 14:58:23 10° S visible
08 Mar 7.2 14:14:10 10° NW 14:19:12 47° WSW 14:24:44 10° S visible
